CW8095 Weather Reports


time (UTC)temp
C
wind
direction
speed
KPH
gust
KPH
rain 1hr
cm
rain 24hr
cm
rain mn
cm
humidity
%
barometer
mb
20260509173522 33 259 4.8 14.5 0.00 0.43 0.00 38 1010.6
20260509172518 32 283 6.4 14.5 0.00 0.43 0.00 40 1010.7
20260509171528 32 262 4.8 16.1 0.00 0.43 0.00 39 1010.8
20260509170524 32 268 6.4 16.1 0.00 0.43 0.00 40 1010.8
20260509165540 32 269 8.0 16.1 0.00 0.43 0.00 40 1010.9
20260509164555 32 264 6.4 14.5 0.00 0.43 0.00 41 1010.9
20260509163526 32 277 3.2 11.3 0.00 0.43 0.00 41 1011.0
20260509162522 32 259 6.4 16.1 0.00 0.43 0.00 40 1010.9
20260509161518 31 264 6.4 14.5 0.00 0.43 0.00 41 1010.8
20260509160529 31 256 6.4 16.1 0.00 0.43 0.00 40 1010.8
20260509155525 31 239 6.4 14.5 0.00 0.43 0.00 42 1010.9
20260509154520 30 263 8.0 16.1 0.00 0.43 0.00 43 1010.9
20260509153516 30 262 6.4 16.1 0.00 0.43 0.00 44 1010.8
20260509152527 30 265 8.0 16.1 0.00 0.43 0.00 45 1010.8
20260509151523 30 287 4.8 11.3 0.00 0.43 0.00 48 1010.6
20260509150519 30 270 4.8 14.5 0.00 0.43 0.00 51 1010.7
20260509145530 29 278 3.2 12.9 0.00 0.43 0.00 52 1010.7
20260509144525 29 267 3.2 9.7 0.00 0.43 0.00 54 1010.9
20260509143520 29 260 3.2 11.3 0.00 0.43 0.00 53 1010.9
20260509142516 30 224 1.6 6.4 0.00 0.43 0.00 50 1011.0
20260509141527 33 255 1.6 6.4 0.00 0.43 0.00 45 1011.1
20260509140523 33 280 4.8 11.3 0.00 0.43 0.00 44 1011.0
20260509135538 35 270 4.8 12.9 0.00 0.43 0.00 40 1011.0
20260509134529 33 258 3.2 9.7 0.00 0.43 0.00 45 1010.8
20260509133525 32 272 3.2 6.4 0.00 0.43 0.00 49 1010.7
20260509132521 30 255 4.8 9.7 0.00 0.43 0.00 52 1010.6
20260509131537 30 266 6.4 14.5 0.00 0.43 0.00 54 1010.6
20260509130528 27 269 4.8 14.5 0.00 0.43 0.00 65 1010.5
20260509125604 24 267 1.6 3.2 0.00 0.43 0.00 75 1010.4
20260509124519 22 264 3.2 6.4 0.00 0.43 0.00 83 1010.4
20260509123515 21 238 1.6 3.2 0.00 0.43 0.00 87 1010.4
20260509122526 21 177 0.0 1.6 0.00 0.43 0.00 88 1010.3
20260509121522 20 0.0 0.0 0.00 0.43 0.00 90 1010.1
20260509120517 20 177 0.0 1.6 0.00 0.43 0.00 91 1010.1
20260509115528 20 177 0.0 1.6 0.00 0.43 0.00 90 1010.1
20260509114524 20 175 0.0 1.6 0.00 0.43 0.00 91 1010.1
20260509113540 20 182 0.0 1.6 0.00 0.43 0.00 90 1010.0
20260509112515 20 182 0.0 1.6 0.00 0.43 0.00 88 1010.0
20260509111526 21 262 0.0 3.2 0.00 0.43 0.00 87 1010.0
20260509110521 21 242 3.2 6.4 0.00 0.43 0.00 89 1010.0
20260509105516 21 246 1.6 3.2 0.00 0.43 0.00 89 1010.0
20260509104527 21 265 1.6 3.2 0.00 0.43 0.00 89 1009.8
20260509103522 21 266 3.2 9.7 0.00 0.43 0.00 90 1009.9
20260509102518 21 270 4.8 12.9 0.00 0.43 0.00 91 1009.8
20260509101547 20 260 9.7 17.7 0.00 0.43 0.00 92 1009.5
20260509100543 20 191 1.6 6.4 0.00 0.43 0.00 92 1008.0
20260509095619 20 164 4.8 12.9 0.00 0.43 0.00 92 1007.2
20260509094529 20 163 6.4 20.9 0.00 0.43 0.00 91 1007.3
20260509093604 20 171 8.0 20.9 0.00 0.43 0.00 91 1007.3
20260509092520 20 157 6.4 20.9 0.00 0.43 0.00 91 1007.4
20260509091530 20 185 8.0 20.9 0.00 0.43 0.00 91 1007.4
20260509090525 20 168 6.4 17.7 0.00 0.43 0.00 92 1007.4
20260509085541 20 161 6.4 14.5 0.00 0.43 0.00 91 1007.7
20260509084544 20 160 8.0 22.5 0.00 0.43 0.00 91 1008.0
20260509083519 20 155 6.4 12.9 0.00 0.43 0.00 91 1008.6
20260509082529 20 157 4.8 12.9 0.00 0.43 0.00 91 1008.9
20260509081522 20 161 6.4 17.7 0.00 0.43 0.00 91 1009.3
20260509080518 20 167 6.4 12.9 0.00 0.43 0.00 90 1010.0
20260509075528 20 156 3.2 9.7 0.00 0.43 0.00 90 1010.3
20260509074524 21 163 3.2 6.4 0.00 0.43 0.00 89 1010.8
20260509073525 21 202 1.6 6.4 0.00 0.43 0.00 89 1011.5
20260509072544 21 245 1.6 4.8 0.00 0.43 0.00 89 1011.4
20260509071519 21 239 3.2 4.8 0.00 0.43 0.00 88 1011.4
20260509070537 21 256 3.2 4.8 0.00 0.43 0.00 88 1011.6
20260509065517 21 239 0.0 3.2 0.00 0.43 0.00 89 1011.5
20260509064552 21 166 0.0 1.6 0.00 0.43 0.00 90 1011.4
20260509063529 21 166 0.0 1.6 0.00 0.43 0.00 89 1011.5
20260509062552 20 166 0.0 1.6 0.00 0.43 0.00 89 1011.4
20260509061544 20 176 0.0 3.2 0.00 0.43 0.00 89 1011.3
20260509060532 20 236 0.0 3.2 0.00 0.43 0.00 88 1011.4
20260509055533 20 240 1.6 3.2 0.00 0.43 0.00 88 1011.2
20260509054531 20 121 1.6 3.2 0.00 0.43 0.00 89 1010.9
20260509053531 20 138 0.0 1.6 0.00 0.43 0.00 89 1010.4
20260509052527 20 0.0 0.0 0.00 0.43 0.00 86 1010.7
20260509051552 21 138 0.0 1.6 0.00 0.43 0.00 87 1010.6
20260509050619 21 138 1.6 1.6 0.00 0.43 0.00 87 1010.4
20260509045547 21 138 0.0 1.6 0.00 0.43 0.43 85 1010.4
20260509044621 21 138 0.0 1.6 0.00 0.43 0.43 85 1010.5
20260509043529 21 137 0.0 1.6 0.00 0.43 0.43 83 1011.0
20260509042537 21 138 0.0 1.6 0.00 0.43 0.43 83 1011.0
20260509041527 22 138 0.0 1.6 0.00 0.43 0.43 82 1010.7
20260509040522 22 142 1.6 6.4 0.00 0.43 0.43 83 1010.2
20260509035518 22 150 3.2 9.7 0.00 0.43 0.43 82 1010.1
20260509034531 22 155 3.2 9.7 0.00 0.43 0.43 80 1010.3
20260509033524 22 162 3.2 9.7 0.00 0.43 0.43 80 1010.1
20260509032521 23 147 1.6 4.8 0.00 0.43 0.43 79 1010.0
20260509031517 23 137 0.0 3.2 0.00 0.43 0.43 78 1010.0
20260509030531 23 123 1.6 4.8 0.00 0.43 0.43 78 1009.9
20260509025527 23 161 3.2 11.3 0.00 0.43 0.43 78 1009.3
20260509024522 23 164 3.2 6.4 0.00 0.43 0.43 78 1009.3
20260509023518 23 146 3.2 4.8 0.00 0.43 0.43 77 1009.5
20260509022527 23 149 1.6 4.8 0.00 0.43 0.43 76 1009.4
20260509021523 23 158 1.6 3.2 0.00 0.43 0.43 76 1009.4
20260509020538 23 160 1.6 4.8 0.00 0.43 0.43 76 1009.3
20260509015528 23 152 1.6 4.8 0.00 0.43 0.43 76 1009.2
20260509014523 23 139 0.0 1.6 0.00 0.43 0.43 75 1009.2
20260509013519 23 159 1.6 4.8 0.00 0.43 0.43 74 1009.0
20260509012529 23 139 3.2 6.4 0.00 0.43 0.43 74 1008.9
20260509011524 23 146 3.2 6.4 0.00 0.43 0.43 73 1008.8
20260509010520 24 169 3.2 12.9 0.00 0.43 0.43 74 1008.7
20260509005535 24 148 0.0 1.6 0.00 0.43 0.43 73 1008.7
20260509004545 25 152 1.6 3.2 0.00 0.43 0.43 71 1008.5
20260509003541 25 133 1.6 4.8 0.00 0.43 0.43 70 1008.4
20260509002516 25 111 3.2 4.8 0.00 0.43 0.43 69 1008.4
20260509001607 25 105 3.2 4.8 0.00 0.43 0.43 68 1008.5
20260509000522 25 105 4.8 6.4 0.00 0.43 0.43 68 1008.6
20260508235537 25 133 3.2 11.3 0.00 0.43 0.43 67 1008.6
20260508234528 26 165 3.2 6.4 0.00 0.43 0.43 67 1008.6
20260508233523 26 158 1.6 6.4 0.00 0.43 0.43 66 1008.8
20260508232518 26 170 3.2 11.3 0.00 0.43 0.43 65 1008.8
20260508231529 27 163 4.8 12.9 0.00 0.43 0.43 63 1008.7
20260508230524 27 170 4.8 20.9 0.00 0.43 0.43 61 1008.7
20260508225519 27 160 4.8 12.9 0.00 0.43 0.43 62 1008.7
20260508224530 27 114 1.6 6.4 0.00 0.43 0.43 62 1008.7
20260508223545 27 127 3.2 9.7 0.00 0.43 0.43 62 1008.7
20260508222520 27 129 1.6 6.4 0.00 0.43 0.43 62 1008.9
20260508221536 27 117 1.6 6.4 0.00 0.43 0.43 62 1009.0
20260508220526 26 135 1.6 6.4 0.00 0.43 0.43 64 1009.2
20260508215522 26 164 1.6 3.2 0.00 0.43 0.43 64 1009.3
20260508214517 25 249 0.0 1.6 0.00 0.43 0.43 67 1009.5
20260508213528 24 242 1.6 3.2 0.18 0.43 0.43 69 1009.7
20260508212523 23 275 0.0 3.2 0.33 0.43 0.43 73 1009.9
20260508211518 23 271 1.6 6.4 0.43 0.43 0.43 73 1010.0
20260508210528 22 245 3.2 6.4 0.43 0.43 0.43 75 1010.2
20260508205524 21 155 6.4 20.9 0.43 0.43 0.43 78 1009.3
20260508204519 21 136 12.9 30.6 0.43 0.43 0.43 79 1008.4
20260508203549 22 146 6.4 17.7 0.25 0.25 0.25 75 1010.3
20260508202545 23 141 4.8 11.3 0.13 0.13 0.13 68 1011.0
20260508201520 23 175 6.4 12.9 0.00 0.00 0.00 61 1011.1
20260508200516 25 155 1.6 11.3 0.00 0.00 0.00 58 1011.6
20260508195527 25 160 4.8 12.9 0.00 0.00 0.00 55 1011.4
20260508194522 26 174 4.8 14.5 0.00 0.00 0.00 52 1011.5
20260508193517 27 158 4.8 14.5 0.00 0.00 0.00 49 1011.4
20260508192527 28 157 3.2 12.9 0.00 0.00 0.00 47 1011.3
20260508191522 27 145 6.4 12.9 0.00 0.00 0.00 48 1011.5
20260508190518 27 157 4.8 14.5 0.00 0.00 0.00 50 1011.7
20260508185528 27 165 4.8 16.1 0.00 0.00 0.00 48 1011.8
20260508184524 27 159 6.4 14.5 0.00 0.00 0.00 49 1011.8
20260508183519 27 167 6.4 14.5 0.00 0.00 0.00 48 1011.9
20260508182529 27 151 6.4 12.9 0.00 0.00 0.00 48 1012.2
20260508181525 28 136 4.8 12.9 0.00 0.00 0.00 46 1012.4
20260508180520 29 156 4.8 14.5 0.00 0.00 0.00 45 1012.4
20260508175515 29 141 6.4 12.9 0.00 0.00 0.00 44 1012.2
20260508174546 27 132 4.8 11.3 0.00 0.00 0.00 47 1012.3